Simultaneous Nadir Overpasses (SNOs) Predictions

Prediction of SNOs between GOES-16 and AQUA Satellite Orbit:

Table of predicted SNOs for the next 14.0 days since TLE Epoch: 11/20/2021
Index Date Time (GOES-16) GOES-16 Lat,Lon AQUA Lat,Lon Distance(km) Time Diff (sec)
1 11/21/2021 18:23:25 -0.03, -75.20 0.71, -71.67 401.22 80
2 11/22/2021 06:44:41 0.03, -75.19 0.35, -76.83 185.55 80
3 11/24/2021 06:29:50 0.03, -75.20 -0.29, -73.87 151.48 80
4 11/24/2021 18:51:13 -0.02, -75.20 -0.84, -79.06 438.28 80
5 11/26/2021 06:17:38 0.02, -75.21 -0.87, -70.90 488.94 80
6 11/26/2021 18:39:03 -0.02, -75.21 -0.19, -76.10 100.57 80
7 11/28/2021 18:29:31 -0.01, -75.23 0.40, -73.13 237.87 80
8 11/29/2021 06:50:46 0.01, -75.24 0.66, -78.30 347.95 80
9 12/01/2021 06:38:34 0.01, -75.26 0.06, -75.33 9.50 80
10 12/03/2021 06:23:43 0.01, -75.28 -0.61, -72.38 330.35 80
11 12/03/2021 18:45:07 -0.01, -75.29 -0.51, -77.56 259.18 80
